This demonstration page uses our WeatherBlox Daily Observations layout. Learn more.

Left ArrowRight Arrow

38.83388, -104.82136

Hourly Observations for March 2, 2021

Temp ( °F °C ) Dew Point ( °F °C ) Humidity (%) Winds ( mph kmh ) Pressure ( in mb ) Visibility ( mi km ) Precip ( " mm )
12:58 am 00:58 Clear 29 -1.9 5 -14.9 37 37 Calm 29.88 1012 10 16 0.00 0.00
1:58 am 01:58 Clear 32 0.2 2 -16.6 27 27 Calm 29.83 1010 10 16 0.00 0.00
2:58 am 02:58 Clear 34 0.9 2 -16.9 25 25 Calm 29.79 1009 10 16 0.00 0.00
3:58 am 03:58 Clear 36 2.4 -1 -18.1 21 21 Calm 29.78 1008 10 16 0.00 0.00
4:58 am 04:58 Clear 36 2.2 1 -17.1 23 23 Calm 29.78 1008 10 16 0.00 0.00
5:58 am 05:58 Clear 37 2.8 0 -17.7 21 21 WNW 5 7 29.76 1008 10 16 0.00 0.00
6:58 am 06:58 Sunny 40 4.4 1 -17.3 19 19 Calm 29.75 1007 10 16 0.00 0.00
7:58 am 07:58 Sunny 45 7.2 -1 -18.2 15 15 SE 3 6 29.74 1007 10 16 0.00 0.00
8:58 am 08:58 Sunny 47 8.1 -1 -18.4 13 13 Calm 29.74 1007 10 16 0.00 0.00
9:58 am 09:58 Sunny 52 10.9 2 -16.8 13 13 SE 10 17 29.71 1006 10 16 0.00 0.00
11:58 am 11:58 Sunny 56 13.3 1 -17.1 11 11 ESE 12 19 29.68 1005 10 16 0.00 0.00
12:58 pm 12:58 Sunny 56 13.2 2 -16.6 11 11 SE 7 11 29.66 1004 10 16 0.00 0.00
1:58 pm 13:58 Sunny 56 13.6 3 -15.9 11 11 SSE 7 11 29.61 1003 10 16 0.00 0.00
2:58 pm 14:58 Sunny 56 13.5 4 -15.4 12 12 SE 7 11 29.58 1002 10 16 0.00 0.00
3:58 pm 15:58 Sunny 53 11.7 1 -17.1 12 12 SSE 7 11 29.59 1002 10 16 0.00 0.00
4:58 pm 16:58 Sunny 52 10.9 3 -16.1 13 13 S 9 15 29.59 1002 10 16 0.00 0.00
5:58 pm 17:58 Clear 50 10.1 7 -14.1 17 17 SSW 10 17 29.62 1003 10 16 0.00 0.00
6:58 pm 18:58 Clear 47 8.4 10 -12.2 22 22 SW 6 9 29.64 1004 10 16 0.00 0.00
7:58 pm 19:58 Clear 42 5.3 13 -10.7 31 31 WNW 7 11 29.65 1004 10 16 0.00 0.00
8:58 pm 20:58 Clear 41 5.2 12 -11 30 30 WNW 7 11 29.64 1004 10 16 0.00 0.00
9:58 pm 21:58 Clear 41 4.9 12 -11.2 30 30 WNW 9 15 29.62 1003 10 16 0.00 0.00
10:58 pm 22:58 Clear 39 4.1 10 -12.3 29 29 WNW 6 9 29.62 1003 10 16 0.00 0.00
11:58 pm 23:58 Clear 40 4.4 8 -13.4 26 26 NW 10 17 29.59 1002 10 16 0.00 0.00

Powered by AerisWeather